Omak, WA

8:16 AM PST on February 20, 2018 (GMT -0800)
Omak

Weather History for KOMK - August, 2013

Change the Weather History Date:

Sunday, August 4, 2013

  Actual Average Record
Temperature  
Mean Temperature 73 °F 75 °F  
Max Temperature 89 °F 90 °F 102 °F (1961)
Min Temperature 57 °F 59 °F 38 °F (1956)
Degree Days  
Heating Degree Days 0 0  
Month to date heating degree days 0 0  
Since 1 June heating degree days 67 84  
Since 1 July heating degree days 0 15  
Cooling Degree Days 8 10  
Month to date cooling degree days 31 40  
Year to date cooling degree days 467 401  
Since 1 June cooling degree days 444 378  
Growing Degree Days 22 (Base 50)    
Moisture  
Dew Point 55 °F    
Average Humidity 58    
Maximum Humidity 87    
Minimum Humidity 29    
Precipitation  
Precipitation T in 0.02 in 0.44 in (1957)
Month to date precipitation 0.51 0.09  
Year to date precipitation 6.61 8.88  
Sea Level Pressure  
Sea Level Pressure 29.99 in    
Wind  
Wind Speed 6 mph (WNW)    
Max Wind Speed 22 mph    
Max Gust Speed 28 mph    
Visibility 10 miles    
Events Rain , Thunderstorm    
T = Trace of Precipitation, MM = Missing Value Source: NWS Daily Summary

Daily Weather History Graph

Daily Weather History Graph

Search for Another Location

Airport or City:

Trip Planner

Search our weather history database for the weather conditions in past years. The results will help you decide how hot, cold, wet, or windy it might be!

Date:

Astronomy

Aug. 04, 2013 Rise Set
Actual Time 5:37 AM PDT 8:30 PM PDT
Civil Twilight 5:00 AM PDT 9:06 PM PDT
Nautical Twilight 4:14 AM PDT 9:52 PM PDT
Astronomical Twilight 3:17 AM PDT 10:48 PM PDT
Moon 3:41 AM PDT (8/4) 6:56 PM PDT (8/4)
Length of Visible Light 16h 05m
Length of Day
14h 52m
Waning Crescent, 4% of the Moon is Illuminated
Aug 4
Waning Crescent
Aug 6
New
Aug 14
First Quarter
Aug 20
Full
Aug 28
Last Quarter

Hourly Weather History & Observations

Time (PDT) Temp. Heat Index Dew Point Humidity Pressure Visibility Wind Dir Wind Speed Gust Speed Precip Events Conditions
12:53 AM 63.0 °F - 55.0 °F 75% 30.02 in 10.0 mi WNW 5.8 mph - N/A   Clear
1:53 AM 63.0 °F - 55.0 °F 75% 30.01 in 10.0 mi WNW 3.5 mph - N/A   Clear
2:53 AM 60.1 °F - 55.0 °F 83% 30.01 in 10.0 mi NW 3.5 mph - N/A   Clear
3:53 AM 57.9 °F - 54.0 °F 87% 30.02 in 10.0 mi NNW 3.5 mph - N/A   Clear
4:53 AM 57.9 °F - 53.1 °F 84% 30.02 in 10.0 mi Calm Calm - N/A   Scattered Clouds
5:53 AM 59.0 °F - 55.0 °F 87% 30.03 in 10.0 mi Calm Calm - N/A   Scattered Clouds
6:53 AM 64.0 °F - 55.9 °F 75% 30.04 in 10.0 mi Calm Calm - N/A   Clear
7:53 AM 68.0 °F - 55.0 °F 63% 30.04 in 10.0 mi Calm Calm - N/A   Clear
8:53 AM 70.0 °F - 55.0 °F 59% 30.04 in 10.0 mi Calm Calm - N/A   Clear
9:53 AM 73.9 °F - 55.0 °F 52% 30.03 in 10.0 mi Calm Calm - N/A   Clear
10:53 AM 77.0 °F - 55.9 °F 48% 30.01 in 10.0 mi SSE 3.5 mph - N/A   Clear
11:53 AM 82.0 °F 81.3 °F 54.0 °F 38% 29.99 in 10.0 mi SSE 6.9 mph - N/A   Clear
12:53 PM 84.0 °F 82.9 °F 55.0 °F 37% 29.97 in 10.0 mi SSE 8.1 mph - N/A   Clear
1:53 PM 87.1 °F - 51.1 °F 29% 29.95 in 10.0 mi SW 9.2 mph - N/A   Clear
2:33 PM 87.8 °F - 50.0 °F 27% 29.97 in 10.0 mi WSW 12.7 mph 16.1 mph N/A Thunderstorm Scattered Clouds
2:53 PM 82.0 °F - 51.1 °F 34% 29.96 in 10.0 mi NW 18.4 mph 27.6 mph N/A Thunderstorm Partly Cloudy
3:38 PM 71.6 °F - 53.6 °F 53% 29.99 in 10.0 mi NNW 17.3 mph 25.3 mph N/A   Partly Cloudy
3:53 PM 72.0 °F - 53.1 °F 51% 29.98 in 10.0 mi North 11.5 mph 23.0 mph N/A Thunderstorm Mostly Cloudy
4:25 PM 69.8 °F - 55.4 °F 60% 29.99 in 10.0 mi NNW 10.4 mph - 0.00 in Rain Light Rain
4:53 PM 69.1 °F - 55.0 °F 61% 29.98 in 10.0 mi North 10.4 mph - 0.00 in Rain Light Rain
5:53 PM 70.0 °F - 55.9 °F 61% 29.96 in 10.0 mi WNW 6.9 mph - 0.00 in Rain Light Rain
6:53 PM 72.0 °F - 57.0 °F 59% 29.95 in 10.0 mi North 6.9 mph - 0.00 in   Clear
7:53 PM 70.0 °F - 57.9 °F 65% 29.95 in 10.0 mi WNW 5.8 mph - N/A   Clear
8:53 PM 66.9 °F - 57.0 °F 70% 29.96 in 10.0 mi WNW 8.1 mph - N/A   Clear
9:53 PM 66.9 °F - 57.0 °F 70% 29.97 in 10.0 mi West 4.6 mph - N/A   Clear
10:53 PM 64.0 °F - 57.0 °F 78% 29.97 in 10.0 mi NW 6.9 mph - N/A   Clear
11:53 PM 64.9 °F - 55.9 °F 73% 29.97 in 10.0 mi WNW 10.4 mph - N/A   Clear